Погода в Езерище

Беларусь     55°50′09″N   29°58′59″E
темп.,
°C
ветер,
м/с
пор.,
м/с
влажн.,
%
обл.,
%
осадки,
мм/ч
давл.,
гПа
погр.,
м
15 июня, вт
вт1500:00+13вюв118887 0.0 101710
03:00+12юз11935 0.0 101610
06:00+14юз24875 0.0 1016107
09:00+18зюз356772 0.0 1015613
12:00+22зюз454750 0.0 10141765
15:00+23з4534100 0.0 10131723
18:00+22з3553100 0.0 10121727
21:00+17зсз278690 0.1 1013253
16 июня, ср
ср1600:00+14зсз2498100 0.0 1013112
03:00+14сз269835 0.0 1014161
06:00+11с38870 0.0 1016235
09:00+16с3453100 0.0 1017600
12:00+20с2340100 0.0 10181499
15:00+21ссв3334100 0.0 10181753
18:00+21ссв33405 0.0 10191611
21:00+15ссв227022 0.0 102018
17 июня, чт
чт1700:00+12св22755 0.0 102225
03:00+11всв22784 0.0 102329
06:00+12в23720 0.0 102476
09:00+19в23490 0.0 1025431
12:00+23вюв22381 0.0 10251497
15:00+25ююв22365 0.0 10251830
18:00+24ююз22425 0.0 10241367
21:00+18ю22735 0.0 102515
18 июня, пт
пт1800:00+15ю12825 0.0 102611
03:00+13ю12880 0.0 102711
06:00+15ююв23830 0.0 102773
09:00+21ююв24565 0.0 1027490
12:00+24ю34435 0.0 10261362
15:00+26ююз34405 0.0 10251571
18:00+25ююз34485 0.0 10251369
21:00+18ююз26824 0.0 1025126
19 июня, сб
сб1900:00+15ю26925 0.0 1026112
03:00+14ю279655 0.0 1026124
06:00+15ю26895 0.0 1027160
09:00+21ю346365 0.0 1026547
12:00+25ю344878 0.0 10251300
15:00+26ююз34455 0.0 10241578
18:00+25ююз33522 0.0 10241433
21:00+20ю22832 0.0 102432